Weather History for KJOT - November, 2013

Change the Weather History Date:

Sunday, November 3, 2013

  Actual Average (KLOT) Record (KLOT)
Temperature  
Mean Temperature 39 °F 47 °F  
Max Temperature 52 °F 55 °F 73 °F (2005)
Min Temperature 26 °F 38 °F 17 °F (2006)
Degree Days  
Heating Degree Days 26 19  
Month to date heating degree days 55  
Since 1 July heating degree days 542  
Cooling Degree Days 0 0  
Month to date cooling degree days 0  
Year to date cooling degree days 862  
Moisture  
Dew Point 32 °F    
Average Humidity 77    
Maximum Humidity 99    
Minimum Humidity 46    
Precipitation  
Precipitation 0.00 in 0.12 in 0.95 in (1992)
Month to date precipitation 0.36  
Year to date precipitation 34.72  
Snow  
Snow 0.00 in 0.00 in 0.30 in (1997)
Month to date snowfall 0.0  
Since 1 July snowfall 0.0  
Since 1 September snowfall 0.0  
Snow Depth -    
Sea Level Pressure  
Sea Level Pressure 30.25 in    
Wind  
Wind Speed 2 mph (SE)    
Max Wind Speed 10 mph    
Max Gust Speed 16 mph    
Visibility 7 miles    
Events Fog    
T = Trace of Precipitation, MM = Missing Value Source: NWS Daily Summary

Daily Weather History Graph

Daily Weather History Graph

Search for Another Location

Airport or City:

Trip Planner

Search our weather history database for the weather conditions in past years. The results will help you decide how hot, cold, wet, or windy it might be!

Date:

Astronomy

Nov. 03, 2013 Rise Set
Actual Time 6:27 AM CST 4:44 PM CST
Civil Twilight 5:58 AM CST 5:13 PM CST
Nautical Twilight 5:25 AM CST 5:46 PM CST
Astronomical Twilight 4:53 AM CST 6:18 PM CST
Moon 6:30 AM CST (11/3) 4:59 PM CST (11/3)
Length of Visible Light 11h 15m
Length of Day
10h 17m
New Moon, 0% of the Moon is Illuminated
Nov 3
New Moon
Nov 9
First Quarter
Nov 17
Full
Nov 25
Last Quarter
Dec 2
New

Hourly Weather History & Observations

Time (CST) Temp. Windchill Dew Point Humidity Pressure Visibility Wind Dir Wind Speed Gust Speed Precip Events Conditions
12:15 AM 32.0 °F - 31.3 °F 97% 30.16 in 4.0 mi Calm Calm - N/A   Clear
12:35 AM 31.6 °F - 30.9 °F 97% 30.16 in 1.2 mi Calm Calm - N/A   Mist
12:55 AM 32.0 °F - 31.6 °F 99% 30.16 in 0.5 mi Calm Calm - N/A Fog Fog
1:15 AM 31.1 °F - 30.6 °F 98% 30.17 in 1.2 mi Calm Calm - N/A   Mist
1:35 AM 30.4 °F - 30.0 °F 99% 30.18 in 0.2 mi Calm Calm - N/A Fog Light Freezing Fog
1:55 AM 30.9 °F - 30.2 °F 97% 30.19 in 1.0 mi Calm Calm - N/A   Mist
1:15 AM 31.1 °F - 30.4 °F 97% 30.19 in 0.5 mi Calm Calm - N/A Fog Light Freezing Fog
1:35 AM 30.2 °F - 29.7 °F 98% 30.20 in 5.0 mi Calm Calm - N/A   Clear
1:55 AM 29.8 °F - 29.3 °F 98% 30.21 in 4.0 mi Calm Calm - N/A   Clear
2:15 AM 29.3 °F - 28.8 °F 98% 30.21 in 4.0 mi Calm Calm - N/A   Clear
2:35 AM 30.7 °F - 30.2 °F 98% 30.21 in 4.0 mi Calm Calm - N/A   Clear
2:55 AM 29.8 °F - 29.3 °F 98% 30.22 in 5.0 mi Calm Calm - N/A   Clear
3:15 AM 28.2 °F - 27.7 °F 98% 30.22 in 0.5 mi Calm Calm - N/A Fog Light Freezing Fog
3:35 AM 30.4 °F - 30.0 °F 99% 30.23 in 0.2 mi Calm Calm - N/A Fog Light Freezing Fog
3:55 AM 28.6 °F - 28.2 °F 99% 30.23 in 0.5 mi Calm Calm - N/A Fog Light Freezing Fog
4:15 AM 28.4 °F - 27.9 °F 98% 30.24 in 2.0 mi Calm Calm - N/A   Clear
4:35 AM 28.9 °F - 28.4 °F 98% 30.24 in 10.0 mi Calm Calm - N/A   Clear
4:55 AM 28.2 °F - 27.5 °F 97% 30.25 in 1.8 mi Calm Calm - N/A   Mist
5:15 AM 29.1 °F - 28.4 °F 97% 30.25 in 5.0 mi Calm Calm - N/A   Clear
5:35 AM 27.5 °F - 26.8 °F 97% 30.25 in 5.0 mi Calm Calm - N/A   Clear
5:55 AM 26.4 °F - 25.7 °F 97% 30.27 in 3.0 mi Calm Calm - N/A   Clear
6:15 AM 27.7 °F - 27.0 °F 97% 30.27 in 2.0 mi Calm Calm - N/A   Clear
6:35 AM 28.2 °F - 27.5 °F 97% 30.27 in 0.8 mi Calm Calm - N/A   Mist
6:55 AM 28.0 °F - 27.3 °F 97% 30.29 in 5.0 mi Calm Calm - N/A   Clear
7:15 AM 28.9 °F - 28.2 °F 97% 30.29 in 7.0 mi Calm Calm - N/A   Clear
7:35 AM 31.1 °F - 30.2 °F 96% 30.30 in 5.0 mi Calm Calm - N/A   Clear
7:55 AM 33.1 °F - 32.2 °F 96% 30.31 in 7.0 mi Calm Calm - N/A   Clear
8:15 AM 35.6 °F - 34.5 °F 96% 30.32 in 10.0 mi Calm Calm - N/A   Clear
8:35 AM 38.3 °F - 36.7 °F 94% 30.31 in 10.0 mi Calm Calm - N/A   Clear
8:55 AM 40.1 °F - 37.0 °F 89% 30.30 in 10.0 mi Calm Calm - N/A   Clear
9:15 AM 42.6 °F 40.9 °F 37.6 °F 82% 30.30 in 10.0 mi ESE 3.5 mph - N/A   Clear
9:35 AM 44.8 °F - 36.7 °F 73% 30.31 in 10.0 mi Calm Calm - N/A   Clear
9:55 AM 46.8 °F - 35.6 °F 65% 30.31 in 10.0 mi East 4.6 mph - N/A   Clear
10:15 AM 47.3 °F - 34.0 °F 60% 30.31 in 10.0 mi South 5.8 mph - N/A   Clear
10:35 AM 48.2 °F - 34.0 °F 58% 30.31 in 10.0 mi SSE 5.8 mph - N/A   Clear
10:55 AM 49.3 °F - 34.7 °F 57% 30.31 in 10.0 mi SSE 4.6 mph - N/A   Clear
11:15 AM 49.3 °F - 34.2 °F 56% 30.31 in 10.0 mi SSE 9.2 mph - N/A   Scattered Clouds
11:35 AM 49.6 °F - 33.4 °F 54% 30.30 in 10.0 mi SSE 4.6 mph - N/A   Scattered Clouds
11:55 AM 50.5 °F - 33.3 °F 52% 30.29 in 10.0 mi South 8.1 mph - N/A   Mostly Cloudy
12:15 PM 49.3 °F - 32.5 °F 53% 30.28 in 10.0 mi SE 3.5 mph - N/A   Scattered Clouds
12:35 PM 48.7 °F - 32.5 °F 54% 30.27 in 10.0 mi SE 5.8 mph - N/A   Scattered Clouds
12:55 PM 51.4 °F - 31.3 °F 46% 30.27 in 10.0 mi SSE 8.1 mph - N/A   Mostly Cloudy
1:15 PM 50.4 °F - 33.1 °F 52% 30.27 in 10.0 mi SE 5.8 mph - N/A   Mostly Cloudy
1:35 PM 52.0 °F - 32.2 °F 47% 30.26 in 10.0 mi SE 4.6 mph - N/A   Mostly Cloudy
1:55 PM 51.6 °F - 32.4 °F 48% 30.26 in 10.0 mi SSE 8.1 mph - N/A   Scattered Clouds
2:15 PM 52.0 °F - 32.2 °F 47% 30.26 in 10.0 mi SE 9.2 mph - N/A   Scattered Clouds
2:35 PM 51.8 °F - 32.2 °F 47% 30.25 in 10.0 mi ESE 8.1 mph - N/A   Scattered Clouds
2:55 PM 51.4 °F - 31.5 °F 46% 30.25 in 10.0 mi SE 8.1 mph - N/A   Clear
3:15 PM 50.9 °F - 31.5 °F 47% 30.24 in 10.0 mi SSE 8.1 mph - N/A   Clear
3:35 PM 50.9 °F - 32.2 °F 49% 30.24 in 10.0 mi South 10.4 mph - N/A   Clear
3:55 PM 50.0 °F - 32.5 °F 51% 30.25 in 10.0 mi SSE 6.9 mph - N/A   Clear
4:15 PM 49.5 °F - 32.2 °F 51% 30.25 in 10.0 mi SSE 6.9 mph - N/A   Clear
4:35 PM 48.2 °F - 32.2 °F 54% 30.25 in 10.0 mi SE 5.8 mph - N/A   Clear
4:55 PM 46.4 °F 43.5 °F 32.9 °F 59% 30.25 in 10.0 mi SE 5.8 mph - N/A   Clear
5:15 PM 45.7 °F 43.4 °F 32.9 °F 61% 30.25 in 10.0 mi SE 4.6 mph - N/A   Clear
5:35 PM 44.4 °F 42.0 °F 33.3 °F 65% 30.25 in 10.0 mi ESE 4.6 mph - N/A   Clear
5:55 PM 43.7 °F 40.3 °F 34.0 °F 69% 30.25 in 10.0 mi SE 5.8 mph - N/A   Clear
6:15 PM 44.1 °F 40.1 °F 34.3 °F 69% 30.25 in 10.0 mi SE 6.9 mph - N/A   Clear
6:35 PM 44.1 °F 40.1 °F 34.7 °F 70% 30.25 in 10.0 mi SE 6.9 mph - N/A   Clear
6:55 PM 44.1 °F 39.5 °F 34.9 °F 70% 30.26 in 10.0 mi SE 8.1 mph - N/A   Clear
7:15 PM 43.5 °F 38.3 °F 34.9 °F 72% 30.25 in 10.0 mi SE 9.2 mph - N/A   Clear
7:35 PM 43.5 °F 38.3 °F 35.6 °F 74% 30.26 in 10.0 mi ESE 9.2 mph - N/A   Clear
7:55 PM 43.3 °F 37.7 °F 36.1 °F 76% 30.25 in 10.0 mi ESE 10.4 mph - N/A   Clear
8:15 PM 43.7 °F 38.6 °F 36.5 °F 76% 30.25 in 10.0 mi SE 9.2 mph - N/A   Clear
8:35 PM 43.3 °F 38.6 °F 36.5 °F 77% 30.25 in 10.0 mi SE 8.1 mph - N/A   Clear
8:55 PM 43.2 °F 38.4 °F 36.5 °F 77% 30.26 in 10.0 mi SE 8.1 mph - N/A   Clear
9:15 PM 42.8 °F 37.5 °F 36.1 °F 77% 30.26 in 10.0 mi SE 9.2 mph - N/A   Clear
9:35 PM 42.8 °F 38.0 °F 36.1 °F 77% 30.26 in 10.0 mi ESE 8.1 mph - N/A   Clear
9:55 PM 42.4 °F 36.5 °F 36.0 °F 78% 30.27 in 10.0 mi SE 10.4 mph - N/A   Clear
10:15 PM 42.4 °F 37.0 °F 36.0 °F 78% 30.27 in 10.0 mi SE 9.2 mph 16.1 mph N/A   Clear
10:35 PM 41.9 °F 36.9 °F 35.8 °F 79% 30.27 in 10.0 mi SE 8.1 mph - N/A   Clear
10:55 PM 41.9 °F 35.9 °F 36.0 °F 79% 30.27 in 10.0 mi ESE 10.4 mph - N/A   Clear